Temp
10 9 10 10 10 10 10 10 10 10 10 10 10 10 8 7 7 7 8 7 4 3 3 3 3 2 1 1 -0 -1 -2 -2 -3 -4 -3 -4 -4 -4 -5 -5 -5 -6 -6 -7
9 10 11 10 10 10 10 10 10 9 8 8 6 6 5 5 5 4 4 4 3 3 2 2 1 1 -0 -1 -1 -1 -1 -2 -2 -3 -5 -4 -5 -5 -5 -6 -6 -6 -7 -8
9 10 10 10 10 11 11 11 11 10 9 7 6 4 4 4 4 4 4 4 3 2 2 1 1 -0 -1 -1 -1 -1 -2 -2 -3 -5 -5 -6 -6 -6 -7 -7 -7 -8 -8 -8
9 10 11 11 11 11 11 11 11 11 10 7 7 2 3 4 4 3 4 3 2 2 2 2 -0 -1 -0 -0 -1 -2 -3 -4 -5 -5 -6 -6 -6 -6 -7 -7 -8 -8 -9 -9
10 10 11 11 11 11 12 11 11 11 11 9 6 6 3 3 3 4 4 4 3 1 1 0 0 -0 -0 -1 -2 -3 -5 -6 -6 -7 -6 -6 -7 -7 -7 -8 -9 -9 -10 -10
10 10 10 11 11 12 12 12 11 10 9 7 6 6 4 4 4 4 4 3 3 2 1 1 0 -1 -1 -2 -3 -5 -6 -7 -7 -7 -7 -7 -7 -8 -8 -9 -9 -9 -10 -10
10 11 11 11 11 11 11 11 10 9 6 4 5 6 4 3 3 2 3 2 2 2 1 0 -1 -2 -2 -3 -4 -7 -7 -7 -7 -7 -7 -7 -8 -8 -9 -9 -9 -9 -10 -10
10 11 11 11 11 11 11 11 10 8 4 4 5 3 3 3 3 3 3 3 2 1 0 -1 -2 -2 -3 -5 -6 -8 -7 -7 -7 -7 -8 -8 -8 -9 -9 -9 -9 -10 -10 -10
10 11 12 11 11 11 11 11 11 9 6 5 3 3 2 2 2 3 2 2 2 1 -1 -1 -2 -3 -4 -6 -7 -7 -8 -7 -8 -8 -8 -8 -9 -9 -9 -10 -10 -10 -11 -11
11 11 11 11 11 11 11 10 10 10 5 4 3 3 3 3 3 3 2 2 1 0 -1 -2 -3 -4 -5 -6 -8 -9 -8 -8 -8 -8 -8 -9 -9 -9 -10 -10 -10 -10 -11 -11
11 11 10 11 10 10 10 10 10 9 8 3 2 3 4 4 3 2 1 1 1 -1 -1 -2 -3 -5 -6 -8 -8 -8 -8 -8 -8 -8 -9 -9 -9 -10 -10 -10 -10 -10 -11 -11
11 11 10 9 9 10 10 10 10 10 7 6 4 3 3 3 2 1 2 1 0 -1 -1 -3 -4 -5 -6 -7 -7 -7 -7 -8 -8 -9 -9 -9 -9 -10 -10 -10 -10 -11 -11 -11
10 10 9 8 9 9 9 9 9 9 8 6 4 3 3 2 2 2 1 0 -1 -1 -3 -4 -5 -5 -6 -8 -7 -7 -7 -8 -8 -9 -9 -9 -10 -10 -10 -10 -10 -11 -11 -11
10 10 10 9 9 9 9 9 8 8 8 6 5 4 2 2 1 1 0 -0 -2 -3 -4 -5 -5 -6 -6 -6 -6 -7 -8 -8 -9 -9 -9 -10 -10 -10 -10 -10 -10 -11 -11 -12
9 9 9 8 8 8 8 8 7 8 7 6 5 4 3 1 0 -0 -0 -1 -2 -3 -4 -5 -5 -7 -5 -6 -7 -7 -8 -9 -9 -9 -10 -10 -10 -10 -10 -10 -10 -11 -11 -12
9 8 8 7 7 8 8 7 7 6 6 5 4 3 2 0 0 0 -0 -1 -2 -4 -4 -5 -5 -5 -5 -6 -7 -7 -8 -9 -9 -10 -10 -10 -10 -10 -10 -10 -11 -11 -11 -12
8 8 7 6 6 7 6 6 6 6 5 5 4 4 3 1 1 0 -1 -2 -4 -4 -4 -4 -4 -5 -5 -6 -7 -7 -8 -9 -9 -10 -10 -10 -10 -10 -11 -11 -11 -11 -11 -12
8 8 8 6 6 3 5 5 5 5 4 3 3 3 2 1 -0 -1 -1 -3 -4 -3 -4 -4 -4 -4 -5 -6 -7 -8 -9 -9 -10 -10 -10 -10 -10 -11 -11 -11 -11 -11 -12 -12
8 8 7 6 5 4 4 5 5 5 4 3 3 3 2 1 -0 -1 -1 -2 -3 -3 -3 -3 -3 -4 -5 -6 -7 -8 -9 -9 -10 -10 -10 -10 -10 -11 -11 -11 -11 -11 -12 -12
7 7 7 6 5 3 5 5 4 4 4 3 2 2 1 1 0 -1 -1 -2 -2 -2 -2 -3 -4 -4 -5 -6 -7 -9 -9 -9 -10 -10 -10 -10 -11 -11 -11 -11 -11 -11 -12 -12
6 6 7 6 5 5 6 5 4 4 4 4 2 1 1 1 -0 -1 -1 -1 -1 -2 -3 -3 -4 -4 -6 -7 -8 -9 -9 -9 -10 -10 -10 -10 -11 -11 -11 -11 -11 -11 -12 -12
6 6 6 5 5 5 5 4 4 4 4 3 2 1 1 0 -0 -0 -1 -1 -1 -2 -3 -3 -3 -5 -5 -7 -8 -9 -9 -9 -10 -10 -10 -10 -11 -11 -11 -11 -11 -11 -11 -11
5 5 5 5 6 5 5 4 4 4 3 3 1 1 1 0 -0 -0 -0 -1 -2 -2 -3 -3 -3 -5 -6 -7 -8 -8 -9 -9 -10 -10 -10 -11 -11 -11 -11 -11 -11 -11 -11 -11
5 5 5 5 5 5 4 4 4 4 3 2 2 1 1 0 0 -0 -1 -1 -2 -2 -2 -3 -4 -5 -6 -7 -8 -8 -9 -9 -10 -10 -10 -11 -11 -11 -11 -11 -11 -11 -11 -11
5 5 5 5 4 4 3 3 3 3 2 2 2 1 1 0 0 -0 -1 -1 -2 -2 -2 -3 -4 -5 -6 -6 -8 -8 -9 -9 -10 -10 -10 -11 -11 -11 -11 -11 -11 -11 -11 -11
5 5 5 5 5 4 4 3 2 2 2 2 1 1 1 0 0 -0 -1 -1 -2 -2 -2 -3 -4 -5 -5 -6 -7 -8 -9 -9 -10 -10 -10 -11 -11 -11 -11 -11 -11 -11 -11 -12
Height
3143 3144 3143 3147 3150 3151 3152 3152 3153 3153 3152 3151 3147 3146 3146 3148 3151 3153 3153 3153 3154 3155 3155 3154 3152 3150 3148 3145 3142 3137 3132 3128 3124 3120 3115 3110 3103 3097 3090 3083 3076 3069 3062 3056
3141 3140 3144 3147 3149 3149 3150 3150 3150 3150 3150 3150 3149 3149 3151 3153 3155 3155 3154 3154 3155 3155 3155 3154 3152 3150 3146 3142 3138 3134 3130 3126 3122 3116 3111 3105 3098 3091 3084 3077 3070 3062 3056 3050
3138 3141 3142 3145 3147 3147 3147 3146 3146 3148 3147 3149 3150 3154 3155 3155 3154 3154 3154 3155 3155 3154 3152 3151 3150 3147 3144 3140 3136 3132 3128 3124 3118 3113 3106 3099 3092 3085 3079 3072 3065 3059 3052 3046
3138 3140 3141 3143 3143 3145 3144 3144 3144 3144 3144 3146 3148 3154 3154 3154 3154 3154 3155 3154 3153 3153 3151 3149 3148 3144 3140 3137 3134 3130 3125 3120 3115 3108 3101 3095 3089 3082 3075 3068 3062 3055 3049 3043
3135 3138 3140 3140 3139 3141 3142 3142 3142 3142 3142 3142 3146 3148 3150 3151 3151 3152 3152 3151 3151 3151 3150 3147 3144 3141 3138 3136 3132 3128 3123 3116 3109 3103 3098 3091 3084 3077 3070 3064 3058 3052 3046 3040
3133 3135 3137 3138 3137 3139 3142 3142 3141 3141 3142 3143 3145 3146 3146 3145 3149 3151 3150 3151 3150 3150 3149 3146 3143 3140 3137 3134 3130 3125 3118 3112 3105 3099 3092 3086 3080 3073 3067 3061 3055 3049 3043 3037
3131 3132 3134 3136 3138 3139 3139 3140 3141 3142 3144 3147 3145 3146 3144 3145 3148 3151 3151 3150 3150 3149 3148 3146 3142 3138 3135 3132 3126 3120 3115 3108 3101 3095 3089 3083 3076 3069 3063 3057 3051 3045 3039 3032
3129 3131 3132 3134 3135 3137 3136 3137 3138 3142 3145 3145 3144 3144 3144 3146 3149 3150 3150 3150 3150 3148 3147 3144 3140 3137 3134 3128 3123 3116 3110 3104 3098 3092 3086 3079 3072 3066 3060 3053 3047 3040 3034 3028
3127 3127 3128 3131 3133 3135 3135 3136 3137 3136 3141 3142 3145 3144 3144 3145 3147 3148 3148 3149 3148 3146 3144 3141 3139 3135 3129 3124 3118 3112 3107 3101 3095 3089 3082 3077 3070 3064 3058 3052 3045 3038 3031 3024
3127 3128 3128 3130 3132 3133 3134 3136 3136 3135 3141 3145 3144 3142 3141 3143 3144 3146 3147 3147 3146 3144 3142 3140 3136 3131 3126 3121 3116 3110 3104 3099 3093 3086 3080 3074 3068 3062 3056 3049 3043 3036 3029 3021
3125 3128 3130 3130 3131 3132 3135 3134 3135 3135 3137 3139 3143 3141 3140 3141 3144 3146 3146 3145 3144 3143 3141 3138 3134 3130 3125 3120 3115 3108 3103 3097 3091 3085 3079 3073 3067 3061 3055 3048 3040 3033 3026 3018
3123 3125 3128 3130 3131 3132 3133 3133 3134 3133 3136 3135 3137 3140 3140 3142 3144 3144 3144 3144 3144 3143 3140 3137 3133 3128 3124 3119 3113 3108 3102 3095 3090 3084 3078 3072 3066 3060 3053 3046 3038 3031 3023 3016
3122 3124 3127 3131 3133 3132 3132 3133 3134 3133 3133 3133 3136 3139 3139 3141 3143 3144 3144 3144 3144 3142 3138 3135 3131 3127 3123 3117 3112 3106 3100 3094 3089 3084 3078 3072 3066 3059 3052 3044 3037 3030 3022 3014
3120 3121 3122 3126 3128 3130 3131 3133 3133 3132 3132 3132 3134 3134 3138 3141 3143 3144 3144 3143 3142 3138 3136 3133 3130 3126 3121 3116 3111 3105 3099 3094 3088 3082 3077 3071 3065 3058 3052 3045 3037 3029 3020 3012
3120 3122 3123 3125 3127 3129 3130 3132 3132 3131 3131 3133 3133 3135 3138 3141 3142 3142 3141 3140 3139 3137 3135 3133 3130 3125 3119 3115 3109 3103 3098 3093 3087 3082 3077 3071 3065 3059 3052 3046 3038 3029 3020 3011
3118 3122 3123 3126 3129 3129 3130 3131 3131 3132 3132 3132 3134 3136 3138 3139 3140 3141 3140 3140 3139 3136 3134 3131 3128 3123 3119 3114 3108 3103 3097 3092 3087 3082 3077 3071 3066 3060 3053 3046 3037 3029 3020 3010
3117 3120 3123 3127 3129 3130 3132 3132 3132 3132 3132 3134 3135 3138 3137 3139 3141 3141 3140 3139 3137 3135 3133 3131 3127 3123 3117 3113 3108 3102 3097 3092 3088 3083 3077 3072 3066 3060 3053 3046 3038 3029 3019 3009
3115 3118 3122 3125 3128 3132 3131 3131 3133 3133 3133 3135 3136 3137 3138 3139 3139 3139 3138 3136 3136 3135 3133 3130 3126 3122 3118 3113 3107 3102 3097 3093 3088 3083 3078 3073 3067 3061 3054 3046 3038 3029 3019 3009
3115 3118 3121 3124 3127 3130 3129 3130 3132 3133 3134 3134 3136 3137 3137 3137 3138 3138 3138 3137 3137 3135 3132 3129 3126 3122 3117 3112 3106 3102 3098 3093 3089 3084 3079 3073 3068 3061 3054 3047 3039 3030 3021 3011
3115 3118 3121 3123 3125 3128 3127 3128 3131 3133 3133 3134 3136 3136 3136 3137 3138 3139 3138 3137 3136 3134 3132 3130 3127 3122 3116 3111 3107 3103 3098 3094 3089 3084 3079 3074 3068 3061 3055 3047 3040 3031 3022 3012
3114 3117 3119 3121 3123 3125 3126 3128 3131 3133 3137 3133 3134 3136 3137 3137 3138 3138 3138 3137 3136 3134 3133 3130 3126 3121 3116 3112 3107 3103 3098 3094 3090 3085 3080 3075 3069 3062 3055 3049 3042 3034 3025 3017
3113 3115 3117 3119 3122 3126 3126 3128 3131 3133 3131 3132 3133 3135 3136 3137 3137 3137 3137 3136 3135 3135 3133 3130 3125 3120 3116 3111 3107 3103 3099 3095 3090 3086 3081 3075 3070 3063 3057 3050 3044 3036 3028 3020
3113 3114 3116 3119 3122 3122 3124 3127 3130 3130 3130 3131 3133 3134 3135 3136 3137 3137 3137 3137 3136 3135 3133 3129 3124 3121 3116 3112 3108 3104 3101 3096 3091 3087 3082 3077 3070 3064 3059 3052 3045 3038 3030 3021
3109 3111 3114 3118 3121 3122 3125 3127 3128 3128 3130 3131 3132 3133 3135 3136 3137 3137 3137 3137 3137 3135 3132 3128 3125 3121 3117 3114 3110 3106 3102 3097 3092 3088 3083 3078 3072 3066 3060 3053 3046 3039 3032 3023
3107 3110 3113 3116 3119 3122 3124 3126 3127 3128 3129 3130 3131 3132 3134 3135 3136 3136 3137 3137 3137 3135 3132 3129 3126 3122 3119 3115 3111 3107 3103 3098 3094 3089 3084 3079 3073 3067 3061 3054 3048 3040 3032 3024
3105 3108 3112 3115 3117 3120 3123 3124 3126 3127 3129 3130 3131 3132 3133 3134 3136 3137 3137 3138 3137 3135 3133 3130 3127 3124 3120 3116 3112 3108 3104 3100 3095 3091 3086 3081 3075 3069 3063 3057 3050 3044 3036 3029
Wind_Speed
22 18 25 18 11 13 15 14 15 18 8 8 12 12 20 19 15 15 17 14 9 7 9 9 12 15 20 24 27 30 29 27 25 26 27 32 33 35 37 38 40 40 39 38
20 26 21 16 12 11 11 16 20 5 16 11 15 16 15 15 11 4 6 3 7 9 9 10 15 18 20 23 24 24 25 25 26 27 32 31 33 36 37 38 39 39 37 37
18 4 7 9 8 11 11 18 11 11 15 8 19 17 13 12 8 8 6 10 10 9 11 19 19 18 19 19 22 23 24 26 28 30 31 34 35 36 35 35 34 34 35 36
15 13 7 5 11 15 16 9 5 10 14 13 17 8 13 13 13 9 9 10 9 9 16 12 14 15 19 21 22 23 24 26 28 31 31 32 33 33 33 33 32 32 33 34
12 7 5 10 11 14 7 8 6 7 13 11 13 5 14 17 17 10 7 6 15 17 11 12 14 18 20 21 22 23 25 30 30 28 29 30 32 32 33 33 32 31 31 32
18 12 10 5 7 8 8 8 5 8 15 2 5 5 15 23 18 12 9 12 9 11 12 13 14 16 19 21 22 25 27 30 30 29 30 32 33 32 31 30 30 30 31 31
13 12 10 10 10 8 9 9 1 1 2 2 4 3 4 20 6 6 8 7 9 10 11 12 12 15 19 21 23 28 25 30 28 29 31 32 32 31 31 31 32 33 33 34
6 3 8 9 12 9 4 6 4 5 3 3 2 2 2 6 9 9 6 7 8 10 10 10 13 17 19 23 24 27 28 27 28 29 31 30 30 30 31 32 34 35 35 35
3 2 8 10 12 9 3 3 5 7 7 4 1 2 4 9 9 7 4 7 9 10 11 12 14 18 23 26 29 30 29 29 29 30 31 30 29 30 32 33 34 35 35 35
3 10 11 8 7 5 3 4 3 2 4 1 4 5 6 6 8 4 6 8 10 10 10 12 16 20 26 28 29 29 28 29 30 30 29 29 30 31 33 34 34 35 35 35
12 12 7 7 4 8 6 2 1 4 2 6 3 4 6 5 4 5 7 8 10 9 11 14 17 21 24 28 30 30 29 29 30 29 28 29 30 31 32 33 34 35 35 35
11 10 8 13 11 5 3 4 3 1 3 2 3 2 7 6 2 4 8 8 7 8 11 14 17 19 23 26 28 28 28 29 28 27 27 28 30 31 32 33 35 36 36 35
11 8 13 10 9 7 3 2 4 6 2 6 4 4 11 7 2 4 6 4 5 8 12 14 15 18 22 27 26 27 28 28 25 25 26 28 29 30 32 34 35 36 36 36
14 17 11 14 12 7 5 1 5 7 3 5 4 7 14 8 3 4 3 4 9 13 15 16 14 19 25 26 26 26 26 25 24 25 26 27 29 30 32 33 35 37 38 37
13 10 8 12 10 7 5 2 6 7 3 2 3 7 9 5 1 3 7 9 14 16 15 13 15 22 25 25 25 25 24 23 24 25 26 27 28 29 31 33 35 37 38 38
13 16 13 16 7 0 2 3 7 7 6 6 9 9 6 4 1 5 8 9 12 14 16 18 19 22 22 23 24 23 23 22 23 24 25 26 27 29 32 34 36 38 39 39
18 22 15 12 13 4 4 2 5 4 3 2 5 4 5 2 2 6 6 9 9 16 18 18 18 18 21 23 23 23 21 21 23 24 24 25 27 29 31 34 37 39 41 42
19 18 12 12 11 1 2 4 2 3 3 3 1 4 6 3 4 5 6 7 11 15 15 14 16 19 22 23 22 21 21 21 22 23 24 25 27 29 31 34 37 39 41 42
15 19 10 8 6 6 6 8 3 4 4 4 3 4 6 4 4 7 7 8 9 11 11 14 17 20 21 22 21 20 19 20 21 22 23 25 27 29 32 35 37 39 40 41
15 17 12 13 6 7 4 8 6 6 6 5 4 5 6 4 4 7 7 7 8 9 11 13 16 19 22 22 20 18 18 20 20 22 23 25 27 29 32 35 37 38 39 41
13 14 12 13 3 4 5 5 8 4 2 2 3 1 5 4 4 8 7 6 5 7 10 14 17 21 22 20 18 17 18 20 21 22 23 25 27 30 32 34 36 36 36 37
12 13 12 12 4 4 11 13 10 3 9 3 4 2 4 3 5 5 4 3 5 8 11 15 20 22 22 20 19 18 19 20 21 22 24 25 27 29 31 33 35 35 35 36
10 12 17 11 10 3 16 11 12 11 6 3 4 3 4 2 2 1 1 4 6 9 13 19 22 21 21 20 19 18 18 19 21 22 23 25 27 29 31 33 35 35 35 37
10 16 11 13 9 10 16 15 13 7 2 2 3 3 3 3 2 3 6 6 7 11 17 20 20 21 20 20 18 18 18 19 21 22 24 25 26 29 31 33 34 35 35 37
13 17 11 13 15 16 15 11 6 4 3 1 4 6 5 5 5 8 7 7 9 13 17 18 19 20 20 20 18 19 19 20 21 22 23 24 26 28 31 32 33 35 37 39
16 14 13 10 8 10 10 11 9 5 2 3 6 6 8 8 8 8 7 7 10 13 16 18 19 19 20 20 19 19 19 20 21 22 23 24 26 28 29 29 31 33 35 36
Wind_Direction
201 220 225 228 251 264 273 276 296 306 252 221 213 200 192 209 223 251 275 297 325 351 330 271 287 293 307 302 304 302 311 315 317 309 303 309 308 311 314 317 317 317 317 318
204 223 232 249 259 256 264 285 290 229 210 234 182 151 172 189 216 258 310 18 336 328 334 324 316 308 308 303 306 314 319 318 313 309 315 313 312 317 319 319 318 319 319 316
211 183 206 236 255 271 288 297 226 225 193 190 173 120 157 177 240 256 282 308 308 319 356 337 306 312 306 313 323 322 318 313 312 319 316 320 321 322 321 320 318 316 316 319
233 216 208 241 279 287 279 242 194 196 189 167 190 147 185 207 225 231 282 293 313 332 331 312 313 321 318 322 320 319 315 314 316 317 323 321 320 321 322 322 322 322 323 323
208 212 227 285 298 304 233 237 295 231 216 184 181 149 192 209 226 247 266 306 324 309 318 330 338 321 315 316 322 317 313 317 325 325 323 324 327 328 327 326 327 327 326 324
220 228 258 275 311 214 209 215 215 217 213 148 198 213 212 207 228 234 258 308 313 316 328 338 324 312 315 322 318 315 334 333 332 330 330 332 331 330 330 330 330 329 327 326
229 245 233 260 233 231 260 238 258 326 64 186 107 204 207 210 204 249 299 306 314 317 340 328 314 318 322 319 324 334 333 332 337 335 334 334 334 335 335 335 335 334 332 330
228 213 230 231 237 256 243 253 213 206 181 197 178 144 176 184 224 242 265 299 314 332 332 331 325 320 321 331 337 339 334 341 340 337 336 338 338 338 339 338 337 334 333 331
218 276 205 205 217 213 220 275 272 131 114 120 230 210 185 191 206 223 278 316 328 338 341 329 322 325 337 338 343 343 340 344 340 338 341 342 341 341 341 339 337 335 334 334
199 140 131 141 190 195 249 251 256 122 136 155 246 259 225 222 211 236 299 320 339 342 334 330 333 341 338 343 346 337 343 341 339 342 343 344 345 343 341 340 338 337 338 338
185 164 144 158 142 158 169 184 98 105 102 150 180 236 214 192 213 260 300 327 346 344 341 342 341 337 340 341 336 343 341 340 342 343 345 346 345 344 343 341 342 343 344 342
162 179 122 133 121 137 173 95 22 114 187 157 179 209 174 151 212 299 327 341 351 348 342 346 342 336 332 334 338 339 339 342 344 346 346 347 347 346 346 348 349 348 347 345
211 174 127 135 140 156 164 86 351 341 215 177 169 185 177 161 203 328 331 353 11 355 357 352 341 335 331 333 342 340 341 341 346 347 349 350 349 351 354 355 353 351 349 348
200 193 201 187 185 167 136 327 338 343 270 195 199 180 171 172 194 321 8 54 16 13 6 353 332 329 331 344 342 341 340 345 349 351 352 352 353 358 359 358 357 356 354 351
184 162 171 131 145 151 137 334 352 17 40 313 159 125 137 137 284 15 27 27 13 7 357 338 327 328 340 339 341 341 344 350 352 353 354 353 358 359 359 358 358 359 357 354
172 138 159 127 143 143 88 358 356 29 47 113 128 115 125 159 278 358 8 3 1 3 351 341 334 335 337 339 342 344 351 353 354 355 355 355 358 358 358 357 359 359 359 358
168 159 155 144 152 151 79 337 324 351 31 102 118 55 85 117 348 332 335 2 351 348 341 334 334 339 342 345 345 351 354 357 357 356 355 355 357 358 359 359 0 360 360 360
189 188 170 160 158 62 249 178 244 306 107 110 48 86 58 32 357 339 347 347 338 334 332 336 348 347 346 346 351 356 359 358 356 356 356 356 357 357 360 0 2 2 0 360
199 194 161 169 160 169 214 212 257 299 205 149 39 75 44 30 351 350 336 326 321 335 345 354 353 349 348 354 359 0 359 358 357 356 356 357 358 358 0 1 3 2 2 1
188 194 199 169 146 198 267 225 232 287 204 204 165 32 25 13 330 336 323 325 347 356 357 358 356 354 359 1 1 3 359 0 357 358 359 358 359 0 1 3 4 3 4 4
195 199 204 190 167 206 220 205 211 234 319 285 162 235 351 343 318 323 325 338 4 6 6 5 0 6 5 3 6 5 3 360 358 1 1 1 1 2 3 4 5 6 6 5
207 195 188 180 142 211 183 191 203 290 319 185 170 202 301 300 307 312 326 16 30 20 15 9 11 10 7 8 8 7 4 359 1 2 2 2 1 3 3 5 7 8 8 8
205 200 193 188 201 213 188 197 221 275 303 164 185 250 234 251 271 281 103 85 50 31 20 17 15 13 11 10 10 10 5 2 1 3 2 2 1 2 3 5 7 10 10 11
196 196 195 179 186 167 181 204 237 253 153 144 187 181 174 153 165 134 115 86 55 35 27 20 17 17 15 13 13 12 9 6 4 3 3 2 2 2 3 5 8 11 13 15
193 183 188 189 175 171 183 198 203 181 144 167 165 154 150 141 135 125 110 82 54 37 30 23 23 22 20 17 16 14 12 9 5 4 4 3 4 4 4 6 11 13 14 16
199 199 200 219 215 183 194 197 175 160 138 150 143 156 153 140 129 125 107 75 52 39 31 27 27 26 24 21 19 17 16 11 8 7 7 7 7 7 9 11 12 15 17 18